St. James, MN

12:21 AM CDT on October 24, 2019 (GMT -0500)
Saint James Municipal

Weather History for KJYG - June, 2019

Change the Weather History Date:

Thursday, June 13, 2019

  Actual Average Record
Temperature  
Mean Temperature 60 °F -  
Max Temperature 77 °F 83 °F 94 °F (1987)
Min Temperature 44 °F 57 °F 39 °F (1969)
Degree Days  
Heating Degree Days 4    
Growing Degree Days 10 (Base 50)    
Moisture  
Dew Point 42 °F    
Average Humidity 49    
Maximum Humidity 87    
Minimum Humidity 25    
Precipitation  
Precipitation 0.00 in - - ()
Sea Level Pressure  
Sea Level Pressure 30.00 in    
Wind  
Wind Speed 4 mph (SW)    
Max Wind Speed 12 mph    
Max Gust Speed 17 mph    
Visibility 10 miles    
Events      
Averages and records for this station are not official NWS values.
T = Trace of Precipitation, MM = Missing Value Source: NWS Daily Summary

Daily Weather History Graph

Daily Weather History Graph

Search for Another Location

Airport or City:

Astronomy

Jun. 13, 2019 Rise Set
Actual Time 5:34 AM CDT 9:01 PM CDT
Civil Twilight 4:58 AM CDT 9:38 PM CDT
Nautical Twilight 4:11 AM CDT 10:25 PM CDT
Astronomical Twilight 3:11 AM CDT 11:25 PM CDT
Moon 5:09 PM CDT (6/13) 3:30 AM CDT (6/13)
Length of Visible Light 16h 39m
Length of Day
15h 27m
Waxing Gibbous, 85% of the Moon is Illuminated
Jun 13
Waxing Gibbous
Jun 17
Full
Jun 25
Last Quarter
Jul 2
New
Jul 9
First Quarter

Hourly Weather History & Observations

Time (CDT) Temp. Windchill Dew Point Humidity Pressure Visibility Wind Dir Wind Speed Gust Speed Precip Events Conditions
12:05 AM 51.8 °F - 42.8 °F 71% 30.06 in 10.0 mi WNW 3.5 mph - N/A   Clear
12:20 AM 51.8 °F - 42.8 °F 71% 30.06 in 10.0 mi WNW 3.5 mph - N/A   Clear
12:36 AM 51.8 °F - 42.8 °F 71% 30.05 in 10.0 mi WNW 3.5 mph - N/A   Clear
12:55 AM 50.0 °F - 42.8 °F 76% 30.05 in 10.0 mi WNW 3.5 mph - N/A   Clear
1:22 AM 50.0 °F - 42.8 °F 76% 30.05 in 10.0 mi NW 3.5 mph - N/A   Clear
1:37 AM 50.0 °F - 42.8 °F 76% 30.05 in 10.0 mi Calm Calm - N/A   Clear
1:55 AM 48.2 °F - 41.0 °F 76% 30.05 in 10.0 mi Calm Calm - N/A   Clear
2:23 AM 48.2 °F - 41.0 °F 76% 30.05 in 10.0 mi Calm Calm - N/A   Clear
2:39 AM 48.2 °F - 41.0 °F 76% 30.05 in 10.0 mi Calm Calm - N/A   Clear
2:55 AM 48.2 °F - 41.0 °F 76% 30.04 in 10.0 mi Calm Calm - N/A   Clear
3:25 AM 46.4 °F 45.2 °F 41.0 °F 81% 30.05 in 10.0 mi WNW 3.5 mph - N/A   Clear
3:40 AM 46.4 °F - 41.0 °F 81% 30.05 in 10.0 mi Calm Calm - N/A   Clear
3:55 AM 46.4 °F 45.2 °F 41.0 °F 81% 30.05 in 10.0 mi West 3.5 mph - N/A   Clear
4:15 AM 46.4 °F 44.3 °F 41.0 °F 81% 30.05 in 10.0 mi West 4.6 mph - N/A   Clear
4:42 AM 46.4 °F - 41.0 °F 81% 30.05 in 10.0 mi Calm Calm - N/A   Clear
4:57 AM 44.6 °F - 41.0 °F 87% 30.05 in 10.0 mi Calm Calm - N/A   Clear
5:15 AM 46.4 °F - 39.2 °F 76% 30.05 in 10.0 mi Calm Calm - N/A   Clear
5:43 AM 46.4 °F - 39.2 °F 76% 30.06 in 10.0 mi Calm Calm - N/A   Clear
5:58 AM 46.4 °F - 39.2 °F 76% 30.06 in 10.0 mi Calm Calm - N/A   Clear
6:15 AM 48.2 °F - 39.2 °F 71% 30.07 in 10.0 mi West 3.5 mph - N/A   Clear
6:16 AM 48.2 °F - 39.2 °F 71% 30.07 in 10.0 mi West 4.6 mph - N/A   Clear
6:45 AM 50.0 °F - 42.8 °F 76% 30.07 in 10.0 mi Calm Calm - N/A   Clear
7:00 AM 51.8 °F - 42.8 °F 71% 30.07 in 10.0 mi WNW 3.5 mph - N/A   Clear
7:15 AM 51.8 °F - 42.8 °F 71% 30.07 in 10.0 mi WNW 3.5 mph - N/A   Clear
7:35 AM 53.6 °F - 42.8 °F 67% 30.08 in 10.0 mi West 3.5 mph - N/A   Clear
8:01 AM 57.2 °F - 44.6 °F 63% 30.08 in 10.0 mi WNW 4.6 mph - N/A   Clear
8:17 AM 59.0 °F - 42.8 °F 55% 30.08 in 10.0 mi North 3.5 mph - N/A   Clear
8:35 AM 60.8 °F - 42.8 °F 52% 30.09 in 10.0 mi Calm Calm - N/A   Clear
9:03 AM 62.6 °F - 42.8 °F 48% 30.09 in 10.0 mi Calm Calm - N/A   Clear
9:18 AM 62.6 °F - 42.8 °F 48% 30.09 in 10.0 mi Calm Calm - N/A   Clear
9:35 AM 62.6 °F - 39.2 °F 42% 30.09 in 10.0 mi Calm Calm - N/A   Clear
9:36 AM 64.4 °F - 39.2 °F 40% 30.09 in 10.0 mi Calm Calm - N/A   Clear
10:04 AM 64.4 °F - 39.2 °F 40% 30.09 in 10.0 mi SW 3.5 mph - N/A   Clear
10:20 AM 64.4 °F - 39.2 °F 40% 30.09 in 10.0 mi West 5.8 mph - N/A   Clear
10:35 AM 64.4 °F - 37.4 °F 37% 30.08 in 10.0 mi SSE 5.8 mph - N/A   Clear
10:55 AM 66.2 °F - 39.2 °F 37% 30.08 in 10.0 mi SW 5.8 mph - N/A   Clear
11:21 AM 66.2 °F - 37.4 °F 35% 30.07 in 10.0 mi WNW 3.5 mph - N/A   Unknown
11:37 AM 66.2 °F - 37.4 °F 35% 30.07 in 10.0 mi Calm Calm - N/A   Unknown
11:55 AM 66.2 °F - 35.6 °F 32% 30.07 in 10.0 mi SSW 5.8 mph - N/A   Clear
12:23 PM 69.8 °F - 37.4 °F 31% 30.05 in 10.0 mi WNW 3.5 mph - N/A   Clear
12:38 PM 69.8 °F - 37.4 °F 31% 30.05 in 10.0 mi Calm Calm - N/A   Clear
12:55 PM 69.8 °F - 35.6 °F 28% 30.04 in 10.0 mi North 3.5 mph - N/A   Clear
12:56 PM 69.8 °F - 35.6 °F 28% 30.04 in 10.0 mi North 3.5 mph - N/A   Clear
1:24 PM 71.6 °F - 37.4 °F 29% 30.03 in 10.0 mi Calm Calm - N/A   Clear
1:40 PM 71.6 °F - 39.2 °F 31% 30.02 in 10.0 mi SSW 3.5 mph - N/A   Clear
1:55 PM 71.6 °F - 37.4 °F 29% 30.02 in 10.0 mi NNW 5.8 mph - N/A   Clear
2:26 PM 73.4 °F - 37.4 °F 27% 30.01 in 10.0 mi WSW 6.9 mph - N/A   Clear
2:41 PM 73.4 °F - 37.4 °F 27% 30.00 in 10.0 mi WSW 4.6 mph - N/A   Clear
2:57 PM 73.4 °F - 37.4 °F 27% 29.99 in 10.0 mi NW 5.8 mph - N/A   Clear
3:15 PM 75.2 °F - 37.4 °F 25% 29.99 in 10.0 mi WSW 6.9 mph - N/A   Clear
3:43 PM 75.2 °F - 37.4 °F 25% 29.98 in 10.0 mi South 4.6 mph - N/A   Clear
3:58 PM 75.2 °F - 39.2 °F 27% 29.97 in 10.0 mi SW 9.2 mph - N/A   Clear
4:15 PM 75.2 °F - 41.0 °F 29% 29.97 in 10.0 mi WSW 4.6 mph - N/A   Clear
4:44 PM 75.2 °F - 41.0 °F 29% 29.96 in 10.0 mi West 9.2 mph 17.3 mph N/A   Clear
4:59 PM 77.0 °F - 42.8 °F 29% 29.96 in 10.0 mi West 5.8 mph 16.1 mph N/A   Clear
5:15 PM 77.0 °F - 42.8 °F 29% 29.95 in 10.0 mi SSW 3.5 mph - N/A   Clear
5:46 PM 77.0 °F - 42.8 °F 29% 29.93 in 10.0 mi West 4.6 mph - N/A   Scattered Clouds
6:01 PM 75.2 °F - 42.8 °F 31% 29.93 in 10.0 mi SSW 9.2 mph 16.1 mph N/A   Scattered Clouds
6:16 PM 75.2 °F - 42.8 °F 31% 29.93 in 5.0 mi WSW 6.9 mph - N/A   Haze
6:35 PM 77.0 °F - 44.6 °F 32% 29.92 in 10.0 mi South 9.2 mph - N/A   Scattered Clouds
6:36 PM 77.0 °F - 44.6 °F 32% 29.92 in 10.0 mi South 9.2 mph - N/A   Scattered Clouds
7:02 PM 75.2 °F - 42.8 °F 31% 29.91 in 10.0 mi SSE 4.6 mph - N/A   Scattered Clouds
7:18 PM 75.2 °F - 44.6 °F 34% 29.91 in 10.0 mi South 6.9 mph - N/A   Clear
7:35 PM 75.2 °F - 44.6 °F 34% 29.91 in 10.0 mi SSE 8.1 mph - N/A   Clear
8:04 PM 75.2 °F - 44.6 °F 34% 29.90 in 10.0 mi South 6.9 mph - N/A   Clear
8:19 PM 75.2 °F - 44.6 °F 34% 29.89 in 10.0 mi South 5.8 mph - N/A   Clear
8:35 PM 73.4 °F - 44.6 °F 36% 29.89 in 10.0 mi SSE 6.9 mph - N/A   Clear
8:36 PM 73.4 °F - 44.6 °F 36% 29.89 in 10.0 mi SSE 6.9 mph - N/A   Clear
8:54 PM 71.6 °F - 44.6 °F 38% 29.88 in 10.0 mi SSE 9.2 mph - N/A   Clear
9:05 PM 71.6 °F - 46.4 °F 41% 29.88 in 10.0 mi SSE 6.9 mph - N/A   Clear
9:21 PM 69.8 °F - 44.6 °F 40% 29.88 in 10.0 mi SSE 6.9 mph - N/A   Clear
9:36 PM 69.8 °F - 44.6 °F 40% 29.89 in 10.0 mi SSE 6.9 mph - N/A   Clear
9:55 PM 69.8 °F - 44.6 °F 40% 29.89 in 10.0 mi SE 6.9 mph - N/A   Clear
9:56 PM 69.8 °F - 44.6 °F 40% 29.89 in 10.0 mi SE 6.9 mph - N/A   Clear
10:22 PM 68.0 °F - 46.4 °F 46% 29.89 in - SE 6.9 mph - N/A   Clear
10:41 PM 68.0 °F - 46.4 °F 46% 29.89 in 10.0 mi SE 6.9 mph - N/A   Clear
10:55 PM 68.0 °F - 46.4 °F 46% 29.89 in 10.0 mi SE 8.1 mph - N/A   Clear
10:56 PM 68.0 °F - 46.4 °F 46% 29.89 in 10.0 mi SE 8.1 mph - N/A   Clear
11:23 PM 66.2 °F - 46.4 °F 49% 29.88 in - SSE 9.2 mph - N/A   Clear
11:39 PM 68.0 °F - 46.4 °F 46% 29.87 in - SSE 9.2 mph - N/A   Clear
11:55 PM 68.0 °F - 46.4 °F 46% 29.87 in 10.0 mi SSE 11.5 mph - N/A   Clear